Location: Broekland
(52.3610°N, 6.2005°E)
Time: 06:01:25
(UTC+00:00)

Meteor 2-15 - Pass Details

Date: 19 May 2025
Orbit: 935 x 956 km, 82.5° (Epoch: 22 June)

Event Time Altitude Azimuth Distance (km) Brightness Sun altitude
Rises 22:35:03 0° 348° (NNW) 3,631 9.3 -16.6°
Reaches altitude 10° 22:37:34 10° 347° (NNW) 2,679 8.2 -16.7°
Maximum altitude 22:43:41 78° 262° (W) 969 4.5 -16.9°
Enters shadow 22:47:15 26° 180° (S) 1,750 5.2 -17.0°
